WD9GET Weather Reports


Display with metric or nautical units.
time (UTC)temp
F
wind
direction
speed
MPH
gust
MPH
rain 1hr
in
rain 24hr
in
rain mn
in
humidity
%
barometer
mb
20201204164527 50 49 1.0 4.0 0.00 0.00 0.00 74 1025.0
20201204164023 50 32 1.0 4.0 0.00 0.00 0.00 74 1025.0
20201204163534 51 333 1.0 3.0 0.00 0.00 0.00 77 1025.0
20201204163202 50 56 1.0 5.0 0.00 0.00 0.00 74 1025.0
20201204161531 49 349 1.0 7.0 0.00 0.00 0.00 74 1025.0
20201204161051 49 60 1.0 7.0 0.00 0.00 0.00 75 1025.1
20201204160609 48 52 2.0 6.0 0.00 0.00 0.00 77 1025.0
20201204155036 47 24 2.0 6.0 0.00 0.00 0.00 78 1025.2
20201204154634 47 8 2.0 6.0 0.00 0.00 0.00 78 1025.4
20201204154059 47 351 2.0 7.0 0.00 0.00 0.00 78 1025.2
20201204152524 48 327 2.0 7.0 0.00 0.00 0.00 78 1025.3
20201204152049 47 26 2.0 8.0 0.00 0.00 0.00 79 1025.2
20201204151806 47 354 3.0 8.0 0.00 0.00 0.00 79 1025.3
20201204150038 46 356 1.0 4.0 0.00 0.00 0.00 80 1025.4
20201204145609 46 17 1.0 4.0 0.00 0.00 0.00 80 1025.3
20201204145041 47 342 0.0 4.0 0.00 0.00 0.00 83 1025.3
20201204144632 46 325 1.0 4.0 0.00 0.00 0.00 83 1025.4
20201204143036 45 328 1.0 4.0 0.00 0.00 0.00 84 1025.3
20201204142536 45 4 1.0 3.0 0.00 0.00 0.00 87 1025.3
20201204142046 45 339 0.0 2.0 0.00 0.00 0.00 89 1025.2
20201204141035 43 8 0.0 2.0 0.00 0.00 0.00 89 1025.3
20201204140543 43 338 0.0 1.0 0.00 0.00 0.00 90 1025.2
20201204140223 42 26 0.0 1.0 0.00 0.00 0.00 92 1025.2
20201204134532 40 281 0.0 1.0 0.00 0.00 0.00 95 1025.2
20201204134050 40 281 0.0 0.0 0.00 0.00 0.00 95 1025.1
20201204133543 40 281 0.0 1.0 0.00 0.00 0.00 95 1024.9
20201204131521 39 281 0.0 0.0 0.00 0.00 0.00 96 1024.6
20201204131032 39 281 0.0 0.0 0.00 0.00 0.00 95 1024.5
20201204130542 39 281 0.0 0.0 0.00 0.00 0.00 95 1024.5
20201204124539 39 281 0.0 1.0 0.00 0.00 0.00 95 1024.4
20201204124035 39 326 0.0 0.0 0.00 0.00 0.00 95 1024.2
20201204123600 39 313 0.0 0.0 0.00 0.00 0.00 95 1024.2
20201204122024 39 308 0.0 1.0 0.00 0.00 0.00 94 1024.0
20201204121616 39 308 0.0 1.0 0.00 0.00 0.00 94 1024.0
20201204121050 39 308 0.0 1.0 0.00 0.00 0.00 94 1024.0
20201204115514 39 285 0.0 1.0 0.00 0.02 0.00 94 1023.7
20201204115029 39 285 0.0 1.0 0.00 0.02 0.00 94 1023.6
20201204114550 39 345 0.0 1.0 0.00 0.02 0.00 94 1023.6
20201204114057 39 346 0.0 1.0 0.00 0.02 0.00 94 1023.5
20201204112536 40 327 0.0 1.0 0.00 0.02 0.00 94 1023.4
20201204112030 39 30 0.0 1.0 0.00 0.02 0.00 94 1023.4
20201204111631 39 302 0.0 1.0 0.00 0.02 0.00 94 1023.4
20201204111057 39 283 0.0 1.0 0.00 0.02 0.00 95 1023.4
20201204110009 39 290 0.0 1.0 0.00 0.02 0.00 95 1023.6
20201204105526 39 297 0.0 1.0 0.00 0.02 0.00 95 1023.5
20201204105045 39 274 0.0 1.0 0.00 0.02 0.00 95 1023.6
20201204104647 39 274 0.0 0.0 0.00 0.02 0.00 95 1023.5
20201204103511 39 274 0.0 1.0 0.00 0.02 0.00 95 1023.2
20201204103025 39 274 0.0 1.0 0.00 0.02 0.00 96 1023.3
20201204102549 38 6 0.0 1.0 0.00 0.02 0.00 95 1023.3
20201204101031 38 6 0.0 0.0 0.00 0.02 0.00 96 1023.1
20201204100540 38 6 0.0 0.0 0.00 0.02 0.00 96 1023.1
20201204100210 38 6 0.0 0.0 0.00 0.02 0.00 96 1023.1
20201204094537 38 6 0.0 0.0 0.00 0.02 0.00 95 1023.0
20201204094029 38 6 0.0 0.0 0.00 0.02 0.00 95 1023.0
20201204093538 38 6 0.0 0.0 0.00 0.02 0.00 95 1023.1
20201204093139 38 6 0.0 0.0 0.00 0.02 0.00 95 1023.0
20201204091527 39 6 0.0 0.0 0.00 0.02 0.00 95 1023.0
20201204091042 39 6 0.0 0.0 0.00 0.02 0.00 95 1023.0
20201204090536 38 6 0.0 0.0 0.00 0.02 0.00 94 1023.0
20201204090315 39 6 0.0 0.0 0.00 0.02 0.00 94 1022.9
20201204084521 39 6 0.0 0.0 0.00 0.02 0.00 94 1022.9
20201204084028 39 6 0.0 0.0 0.00 0.02 0.00 93 1022.9
20201204083557 40 6 0.0 0.0 0.00 0.02 0.00 93 1022.9
20201204082522 40 6 0.0 0.0 0.00 0.02 0.00 91 1023.0
20201204082036 41 6 0.0 0.0 0.00 0.02 0.00 91 1023.0
20201204081624 41 6 0.0 0.0 0.00 0.02 0.00 91 1023.0
20201204080040 41 6 0.0 1.0 0.00 0.02 0.00 89 1023.2
20201204075532 42 6 0.0 1.0 0.00 0.03 0.00 89 1023.2
20201204075108 42 6 0.0 1.0 0.00 0.03 0.00 89 1023.2
20201204073509 42 37 0.0 1.0 0.00 0.03 0.00 87 1023.3
20201204073028 43 37 0.0 1.0 0.00 0.03 0.00 86 1023.2
20201204072539 43 2 0.0 1.0 0.00 0.03 0.00 87 1023.2
20201204072053 43 348 0.0 1.0 0.00 0.03 0.00 86 1023.3
20201204070518 43 309 0.0 2.0 0.00 0.03 0.00 86 1023.3
20201204070138 43 15 0.0 2.0 0.00 0.03 0.00 86 1023.4
20201204065557 44 4 0.0 1.0 0.00 0.03 0.00 85 1023.3
20201204064022 44 357 0.0 1.0 0.00 0.03 0.00 85 1023.6
20201204063528 44 328 0.0 1.0 0.00 0.03 0.00 85 1023.5
20201204063129 44 1 0.0 2.0 0.00 0.03 0.00 84 1023.6
20201204061025 45 335 0.0 1.0 0.00 0.03 0.00 83 1023.6
20201204060533 45 20 0.0 1.0 0.00 0.03 0.00 83 1023.8
20201204060129 45 4 0.0 2.0 0.00 0.03 0.00 83 1023.7
20201204055018 45 9 0.0 2.0 0.00 0.03 0.03 83 1023.9
20201204054539 45 18 0.0 2.0 0.00 0.03 0.03 82 1023.9
20201204054046 45 30 0.0 2.0 0.00 0.03 0.03 82 1023.8
20201204052524 46 15 0.0 4.0 0.00 0.03 0.03 81 1023.9
20201204052044 46 326 1.0 4.0 0.00 0.03 0.03 80 1023.8
20201204051711 46 12 1.0 4.0 0.00 0.03 0.03 80 1024.0
20201204050518 46 325 1.0 5.0 0.00 0.03 0.03 80 1023.9
20201204050036 46 17 1.0 4.0 0.00 0.03 0.03 80 1023.9
20201204045552 47 6 1.0 4.0 0.00 0.06 0.03 79 1023.8
20201204044034 47 352 0.0 3.0 0.00 0.06 0.03 80 1023.9
20201204043538 47 357 0.0 4.0 0.00 0.06 0.03 80 1023.9
20201204043126 47 286 1.0 4.0 0.00 0.06 0.03 79 1023.9
20201204042010 47 21 1.0 4.0 0.00 0.06 0.03 79 1024.0
20201204041542 47 6 1.0 4.0 0.00 0.06 0.03 79 1023.9
20201204041037 47 324 1.0 4.0 0.00 0.06 0.03 79 1024.0
20201204040558 47 328 1.0 4.0 0.00 0.06 0.03 79 1023.8
20201204035516 47 49 0.0 4.0 0.00 0.13 0.03 79 1023.7
20201204035030 47 356 0.0 4.0 0.00 0.13 0.03 78 1023.6
20201204034613 48 22 1.0 5.0 0.00 0.13 0.03 77 1023.6
20201204033513 48 55 2.0 9.0 0.00 0.13 0.03 77 1023.6
20201204033058 48 79 2.0 7.0 0.00 0.13 0.03 77 1023.6
20201204032547 48 23 1.0 6.0 0.00 0.13 0.03 77 1023.4
20201204031020 49 342 0.0 5.0 0.00 0.13 0.03 77 1023.3
20201204030529 49 63 1.0 5.0 0.00 0.13 0.03 76 1023.3
20201204030129 49 32 1.0 5.0 0.00 0.13 0.03 76 1023.3
20201204024520 49 11 0.0 3.0 0.00 0.18 0.03 76 1023.2
20201204024044 49 2 0.0 2.0 0.00 0.18 0.03 76 1023.1
20201204023558 49 25 0.0 2.0 0.00 0.18 0.03 76 1023.0
20201204023028 49 24 0.0 2.0 0.00 0.18 0.03 75 1022.8
20201204022548 49 334 0.0 2.0 0.00 0.18 0.03 75 1022.8
20201204022045 50 323 0.0 3.0 0.00 0.18 0.03 75 1022.7
20201204020517 50 326 0.0 3.0 0.00 0.18 0.03 74 1022.5
20201204020048 50 13 0.0 3.0 0.00 0.18 0.03 73 1022.6
20201204015553 51 1 0.0 3.0 0.00 0.27 0.03 73 1022.6
20201204014036 51 347 0.0 5.0 0.00 0.27 0.03 71 1022.3
20201204013540 52 11 1.0 5.0 0.00 0.27 0.03 71 1022.1
20201204013243 52 20 1.0 4.0 0.00 0.27 0.03 70 1022.0
20201204012022 52 326 0.0 4.0 0.00 0.27 0.03 70 1021.8
20201204011556 52 321 1.0 4.0 0.00 0.27 0.03 70 1021.8
20201204011059 52 40 1.0 5.0 0.00 0.27 0.03 69 1021.7
20201204005521 53 7 1.0 4.0 0.00 0.27 0.03 68 1021.3
20201204005034 53 12 1.0 4.0 0.00 0.27 0.03 68 1021.2
20201204004908 53 348 0.0 2.0 0.00 0.27 0.03 70 1021.3
20201204003051 53 332 0.0 2.0 0.00 0.27 0.03 69 1021.0
20201204002536 53 341 0.0 2.0 0.00 0.27 0.03 69 1020.9
20201204002049 53 21 0.0 2.0 0.00 0.27 0.03 68 1020.9
20201204000523 53 352 0.0 3.0 0.00 0.27 0.03 68 1020.7
20201204000056 53 309 1.0 3.0 0.00 0.27 0.03 68 1020.6
20201203235534 53 18 0.0 3.0 0.00 0.27 0.03 68 1020.4
20201203235107 53 352 0.0 2.0 0.00 0.27 0.03 68 1020.4
20201203233513 53 15 0.0 2.0 0.00 0.27 0.03 69 1020.3
20201203233045 53 348 0.0 2.0 0.00 0.27 0.03 69 1020.4
20201203232602 53 358 0.0 2.0 0.00 0.27 0.03 67 1020.4
20201203232059 53 8 0.0 3.0 0.00 0.27 0.03 67 1020.3
20201203230517 54 17 0.0 2.0 0.00 0.27 0.03 68 1020.3
20201203230101 54 347 0.0 2.0 0.00 0.27 0.03 67 1020.1
20201203225554 54 32 0.0 3.0 0.00 0.27 0.03 67 1020.0
20201203224047 54 347 0.0 3.0 0.00 0.27 0.03 67 1019.8
20201203223518 54 324 0.0 3.0 0.00 0.27 0.03 67 1019.8
20201203223126 54 335 1.0 3.0 0.00 0.27 0.03 66 1019.9
20201203222607 54 326 0.0 3.0 0.00 0.27 0.03 65 1019.9
20201203221019 54 8 0.0 2.0 0.00 0.27 0.03 66 1020.3
20201203220527 54 332 0.0 2.0 0.00 0.27 0.03 66 1020.2
20201203220057 54 332 0.0 3.0 0.00 0.27 0.03 66 1020.1
20201203215556 54 16 1.0 4.0 0.00 0.27 0.03 65 1020.1
20201203214016 54 307 1.0 4.0 0.00 0.27 0.03 63 1020.1
20201203213523 54 348 1.0 4.0 0.00 0.27 0.03 63 1020.1
20201203213123 55 320 1.0 4.0 0.00 0.27 0.03 62 1020.3
20201203211036 53 296 1.0 5.0 0.00 0.27 0.03 64 1020.0
20201203210538 53 319 1.0 7.0 0.00 0.27 0.03 65 1020.0
20201203210126 53 15 2.0 7.0 0.00 0.27 0.03 65 1019.9
20201203204518 53 314 0.0 5.0 0.00 0.27 0.03 68 1019.9
20201203204036 53 321 0.0 4.0 0.00 0.27 0.03 66 1020.0
20201203203549 53 343 1.0 4.0 0.00 0.27 0.03 66 1020.1
20201203203130 53 45 1.0 5.0 0.00 0.27 0.03 65 1020.3
20201203201516 53 303 1.0 5.0 0.00 0.27 0.03 64 1020.5
20201203201025 52 322 1.0 4.0 0.00 0.27 0.03 66 1020.4
20201203200546 52 335 2.0 4.0 0.00 0.27 0.03 65 1020.5
20201203200239 52 15 0.0 4.0 0.00 0.27 0.03 67 1020.4
20201203194544 52 330 1.0 6.0 0.00 0.27 0.03 66 1020.7
20201203194036 52 327 2.0 5.0 0.00 0.27 0.03 66 1020.8
20201203193546 53 6 1.0 6.0 0.00 0.27 0.03 64 1020.9
20201203192022 52 319 1.0 5.0 0.00 0.27 0.03 66 1021.1
20201203191523 52 309 1.0 6.0 0.00 0.27 0.03 66 1021.1
20201203191043 52 337 1.0 6.0 0.00 0.27 0.03 67 1021.2
20201203190556 51 1 2.0 6.0 0.00 0.27 0.03 66 1021.1
20201203185026 50 318 2.0 6.0 0.00 0.31 0.03 67 1021.2
20201203184609 50 315 3.0 6.0 0.00 0.31 0.03 67 1021.2
20201203184040 50 353 2.0 6.0 0.00 0.31 0.03 67 1021.3
20201203183559 50 10 2.0 7.0 0.00 0.31 0.03 69 1021.4
20201203182012 50 38 1.0 5.0 0.00 0.31 0.03 69 1021.8
20201203181548 49 8 2.0 5.0 0.00 0.31 0.03 69 1021.9
20201203181035 49 13 1.0 7.0 0.00 0.31 0.03 69 1021.8
20201203180554 49 8 2.0 7.0 0.00 0.31 0.03 69 1021.5
20201203175024 49 32 2.0 6.0 0.00 0.34 0.03 69 1021.8
20201203174615 49 11 2.0 6.0 0.00 0.34 0.03 71 1022.0
20201203174040 49 36 1.0 7.0 0.00 0.34 0.03 71 1022.1
20201203173551 49 4 2.0 7.0 0.00 0.34 0.03 70 1022.1
20201203171530 48 330 1.0 7.0 0.00 0.34 0.03 71 1022.6
20201203171026 48 312 2.0 7.0 0.00 0.34 0.03 71 1022.8
20201203170539 48 293 2.0 7.0 0.00 0.34 0.03 71 1022.9